Regional Weather Roundup
Issued by NWS Midland/Odessa, TX

Home | Current Version | Previous Version | Text Only | Print | Product List | Glossary On
Versions: 1 2 3 4 5 6 7 8 9 10 11 12 13 14 15 16 17 18 19 20 21 22 23 24 25 26 27 28 29 30 31 32 33 34 35 36 37 38 39 40 41 42 43 44 45 46 47 48 49 50
000
ASUS44 KMAF 310401
RWRMAF
MIDLAND AREA WEATHER ROUNDUP
NATIONAL WEATHER SERVICE MIDLAND TX
1100 PM CDT MON MAY 30 2016

...IN SOUTHWEST TEXAS AND SOUTHEAST NEW MEXICO...

CITY           SKY/WX    TMP DP  RH WIND       PRES   REMARKS
ALPINE         CLOUDY    61  55  81 SE6       30.19R
ANDREWS        TSTM      60  60 100 E15       30.03R
ARTESIA        CLEAR     61  61 100 SW9       29.99R
BIG SPRING     CLOUDY    70  64  82 SE14      29.97F
CARLSBAD       CLOUDY    61  58  90 N7        29.96R
DRYDEN           N/A     70  64  81 NE7       29.90F
FORT STOCKTON  NOT AVBL
GUAD PASS      NOT AVBL
HOBBS          CLOUDY    64  55  72 SW7       29.94F
MARFA          LGT RAIN  58  54  86 E20       30.10F
MIDLAND AIRPK  CLOUDY    74  63  67 E6        29.95F
MIDLAND INTL   CLOUDY    75  61  61 SE7       30.00R
ODESSA         CLOUDY    77  64  64 SE16G23   29.99R
PECOS          LGT RAIN  74  55  51 S18       29.96R
PRESIDIO       FAIR      72  61  67 N13       29.98R
SEMINOLE       CLOUDY    68  55  64 W7        29.98R
SNYDER         LGT RAIN  73  66  78 S13G23    29.96R
WINK           PTCLDY    71  54  54 W3        29.95R
$$
...OTHER STATIONS IN TEXAS...

CITY           SKY/WX    TMP DP  RH WIND       PRES   REMARKS
ABILENE        CLOUDY    79  66  64 SW7       29.93R
AMARILLO       PTCLDY    67  63  87 SE12      29.95R
AUSTIN         MOCLDY    78  73  84 S8        29.93R
BROWNSVILLE    CLOUDY    78  75  90 S3        29.92R
CORPUS CHRISTI MOCLDY    80  75  84 SE10      29.92F
DALLAS FTW     CLOUDY    75  65  70 SE5       29.91S
DEL RIO        CLOUDY    77  66  68 E3        29.91S
EL PASO        LGT RAIN  73  54  51 S13       29.99R
HOUSTON INT    CLOUDY    76  70  82 S5        29.94R
LUBBOCK        TSTM      66  57  72 S20G28    29.94F
SAN ANGELO     CLOUDY    73  66  78 S5        29.96R
SAN ANTONIO    CLOUDY    77  68  73 CALM      29.94R
WACO           PTCLDY    76  66  71 S8        29.92R
WICHITA FALLS  NOT AVBL
$$
...OTHER LOCATIONS IN NEW MEXICO...

CITY           SKY/WX    TMP DP  RH WIND       PRES   REMARKS
ALAMAGORDO     CLOUDY    72  46  40 SW25G36   30.03R
ALBUQUERQUE    MOCLDY    70  30  22 SE7       30.00R
CANNON AFB     PTCLDY    70  47  44 SW15      29.96S
CLOVIS         CLOUDY    70  45  40 S8        29.97F
HOLLOMAN AFB   DRIZZLE   73  51  46 S23G39    29.97R
ROSWELL        PTCLDY    64  50  60 CALM      29.99R
RUIDOSO          N/A     54  43  66 S7        30.17R
SANTA FE       CLOUDY    64  23  21 W7        30.03R
TRUTH OR CONSE CLOUDY    69  45  41 CALM      29.98F
TUCUMCARI      LGT RAIN  72  39  30 SW17G24   29.90R
$$




USA.gov is the U.S. government's official web portal to all federal, state and local government web resources and services.